TimeCDT,TemperatureF,Dew PointF,Humidity,Sea Level PressureIn,VisibilityMPH,Wind Direction,Wind SpeedMPH,Gust SpeedMPH,PrecipitationIn,Events,Conditions,WindDirDegrees,DateUTC
12:05 AM,64.4,62.6,94,30.03,3.0,NW,17.3,-,N/A,,Overcast,310,2012-10-06 05:05:00
12:25 AM,59.0,57.2,94,30.05,6.0,WNW,15.0,24.2,N/A,,Overcast,300,2012-10-06 05:25:00
12:45 AM,55.4,53.6,94,30.06,7.0,NW,11.5,23.0,N/A,Thunderstorm,Overcast,320,2012-10-06 05:45:00
1:05 AM,53.6,51.8,94,30.07,5.0,NNW,11.5,20.7,N/A,,Overcast,330,2012-10-06 06:05:00
1:25 AM,51.8,50.0,94,30.09,3.0,NNW,15.0,23.0,N/A,,Overcast,330,2012-10-06 06:25:00
1:45 AM,50.0,48.2,94,30.09,4.0,NNW,11.5,-,N/A,Rain,Light Rain,330,2012-10-06 06:45:00
2:05 AM,48.2,46.4,93,30.11,8.0,NNW,13.8,23.0,N/A,Thunderstorm,Overcast,330,2012-10-06 07:05:00
2:25 AM,48.2,46.4,93,30.10,10.0,North,9.2,-,N/A,Thunderstorm,Overcast,10,2012-10-06 07:25:00
2:45 AM,50.0,46.4,87,30.11,10.0,NNW,10.4,-,N/A,,Overcast,330,2012-10-06 07:45:00
3:05 AM,48.2,46.4,93,30.10,7.0,North,8.1,-,N/A,Rain-Thunderstorm,Light Rain,350,2012-10-06 08:05:00
3:25 AM,48.2,46.4,93,30.12,10.0,North,8.1,-,0.01,Rain-Thunderstorm,Light Thunderstorms and Rain,350,2012-10-06 08:25:00
3:45 AM,48.2,46.4,93,30.10,10.0,NNE,10.4,-,0.01,Thunderstorm,Thunderstorm,20,2012-10-06 08:45:00
4:25 AM,48.2,46.4,93,30.11,10.0,North,5.8,-,N/A,,Overcast,10,2012-10-06 09:25:00
4:45 AM,48.2,44.6,87,30.10,10.0,North,9.2,-,N/A,,Overcast,360,2012-10-06 09:45:00
5:25 AM,48.2,44.6,87,30.13,10.0,North,11.5,17.3,N/A,,Overcast,10,2012-10-06 10:25:00
5:45 AM,48.2,44.6,87,30.13,10.0,NNE,12.7,-,N/A,,Overcast,20,2012-10-06 10:45:00
6:05 AM,48.2,44.6,87,30.14,10.0,NNE,12.7,16.1,N/A,,Overcast,20,2012-10-06 11:05:00
6:45 AM,46.4,41.0,81,30.16,10.0,North,12.7,19.6,N/A,,Overcast,10,2012-10-06 11:45:00
7:05 AM,46.4,41.0,81,30.16,10.0,North,11.5,17.3,N/A,,Overcast,10,2012-10-06 12:05:00
7:25 AM,46.4,41.0,81,30.17,10.0,North,12.7,17.3,N/A,,Overcast,10,2012-10-06 12:25:00
7:45 AM,46.4,41.0,81,30.17,10.0,NNE,12.7,18.4,N/A,,Overcast,20,2012-10-06 12:45:00
8:05 AM,46.4,41.0,81,30.18,10.0,NNE,10.4,-,N/A,,Overcast,30,2012-10-06 13:05:00
8:25 AM,46.4,41.0,81,30.18,10.0,North,12.7,-,N/A,,Overcast,10,2012-10-06 13:25:00
8:45 AM,48.2,41.0,76,30.19,10.0,NNE,11.5,-,N/A,,Overcast,20,2012-10-06 13:45:00
9:05 AM,48.2,41.0,76,30.18,10.0,NNE,13.8,17.3,N/A,,Overcast,20,2012-10-06 14:05:00
9:25 AM,48.2,41.0,76,30.18,10.0,NNE,16.1,20.7,N/A,,Overcast,20,2012-10-06 14:25:00
9:45 AM,48.2,41.0,76,30.18,10.0,North,10.4,-,N/A,,Overcast,360,2012-10-06 14:45:00
10:25 AM,48.2,41.0,76,30.18,10.0,NNE,9.2,19.6,N/A,,Overcast,20,2012-10-06 15:25:00
10:45 AM,51.8,41.0,67,30.17,10.0,NE,12.7,-,N/A,,Mostly Cloudy,40,2012-10-06 15:45:00
11:05 AM,53.6,41.0,62,30.17,10.0,NNE,6.9,-,N/A,,Mostly Cloudy,30,2012-10-06 16:05:00
11:25 AM,55.4,41.0,58,30.16,10.0,NE,12.7,-,N/A,,Scattered Clouds,40,2012-10-06 16:25:00
11:45 AM,57.2,42.8,59,30.15,10.0,NNE,10.4,-,N/A,,Partly Cloudy,20,2012-10-06 16:45:00
12:05 PM,57.2,41.0,55,30.13,10.0,NNE,10.4,16.1,N/A,,Clear,30,2012-10-06 17:05:00
12:25 PM,59.0,41.0,51,30.12,10.0,NE,10.4,-,N/A,,Clear,40,2012-10-06 17:25:00
12:45 PM,59.0,41.0,51,30.11,10.0,NE,11.5,18.4,N/A,,Clear,40,2012-10-06 17:45:00
1:05 PM,60.8,41.0,48,30.11,10.0,NNE,6.9,-,N/A,,Clear,30,2012-10-06 18:05:00
1:25 PM,62.6,39.2,42,30.12,10.0,NNE,9.2,18.4,N/A,,Clear,20,2012-10-06 18:25:00
1:45 PM,62.6,41.0,45,30.11,10.0,North,10.4,-,N/A,,Clear,350,2012-10-06 18:45:00
2:05 PM,62.6,39.2,42,30.11,10.0,NW,10.4,-,N/A,,Scattered Clouds,320,2012-10-06 19:05:00
2:25 PM,60.8,39.2,45,30.11,10.0,NNW,8.1,-,N/A,,Mostly Cloudy,340,2012-10-06 19:25:00
2:45 PM,59.0,39.2,48,30.12,10.0,NNW,8.1,-,N/A,,Overcast,340,2012-10-06 19:45:00
3:05 PM,59.0,39.2,48,30.12,10.0,NNW,10.4,-,N/A,,Overcast,330,2012-10-06 20:05:00
3:25 PM,57.2,39.2,51,30.11,10.0,North,8.1,-,N/A,,Mostly Cloudy,360,2012-10-06 20:25:00
3:45 PM,55.4,41.0,58,30.09,10.0,North,8.1,-,N/A,Rain,Light Rain,10,2012-10-06 20:45:00
4:05 PM,53.6,44.6,72,30.06,6.0,NNE,8.1,-,0.01,Rain,Light Rain,30,2012-10-06 21:05:00
4:25 PM,53.6,44.6,72,30.10,10.0,West,6.9,-,0.02,Rain,Light Rain,280,2012-10-06 21:25:00
4:45 PM,53.6,46.4,77,30.10,10.0,NNW,6.9,-,0.02,,Mostly Cloudy,330,2012-10-06 21:45:00
5:05 PM,53.6,44.6,72,30.09,10.0,NNW,5.8,-,N/A,Rain-Thunderstorm,Light Rain,330,2012-10-06 22:05:00
5:25 PM,53.6,44.6,72,30.15,10.0,WNW,11.5,-,N/A,,Overcast,290,2012-10-06 22:25:00
5:45 PM,51.8,44.6,76,30.11,6.0,North,8.1,-,N/A,Rain,Light Rain,360,2012-10-06 22:45:00
6:05 PM,50.0,44.6,82,30.11,9.0,North,5.8,-,N/A,Rain,Light Rain,10,2012-10-06 23:05:00
6:25 PM,50.0,46.4,87,30.12,9.0,North,4.6,-,0.01,,Overcast,350,2012-10-06 23:25:00
6:45 PM,50.0,44.6,82,30.13,10.0,NNW,6.9,-,0.01,Rain,Light Rain,330,2012-10-06 23:45:00
7:05 PM,50.0,44.6,82,30.12,10.0,North,4.6,-,N/A,Rain-Thunderstorm,Light Rain,360,2012-10-07 00:05:00
7:25 PM,50.0,46.4,87,30.16,5.0,NNW,6.9,-,0.02,Rain,Heavy Rain,330,2012-10-07 00:25:00
7:45 PM,48.2,44.6,87,30.14,9.0,North,10.4,-,0.02,Rain,Light Rain,360,2012-10-07 00:45:00
8:05 PM,48.2,44.6,87,30.15,10.0,North,5.8,-,N/A,,Overcast,10,2012-10-07 01:05:00
8:25 PM,48.2,44.6,87,30.17,8.0,North,4.6,-,0.01,Rain,Light Rain,350,2012-10-07 01:25:00
8:45 PM,48.2,44.6,87,30.17,10.0,NNW,4.6,-,0.01,,Overcast,340,2012-10-07 01:45:00
9:05 PM,48.2,44.6,87,30.15,10.0,NNE,4.6,-,N/A,,Overcast,30,2012-10-07 02:05:00
9:25 PM,48.2,44.6,87,30.16,10.0,North,10.4,18.4,N/A,,Overcast,350,2012-10-07 02:25:00
9:45 PM,46.4,42.8,87,30.17,10.0,NNE,15.0,-,N/A,Rain,Light Rain,20,2012-10-07 02:45:00
10:05 PM,46.4,42.8,87,30.17,7.0,North,9.2,16.1,N/A,Rain,Light Rain,360,2012-10-07 03:05:00
10:25 PM,46.4,42.8,87,30.18,10.0,North,6.9,-,N/A,Rain,Light Rain,10,2012-10-07 03:25:00
10:45 PM,46.4,42.8,87,30.19,4.0,North,5.8,-,0.04,Rain,Light Rain,10,2012-10-07 03:45:00
11:05 PM,46.4,41.0,81,30.19,3.0,NNW,5.8,-,0.02,Rain,Heavy Rain,330,2012-10-07 04:05:00
11:45 PM,44.6,42.8,93,30.18,8.0,NNW,4.6,-,0.10,Rain,Light Rain,330,2012-10-07 04:45:00